Regional Weather Roundup
Issued by NWS

Home | Current Version | Previous Version | Text Only | Print | Product List | Glossary Off
Versions: 1 2 3 4 5 6 7 8 9 10 11 12 13 14 15 16 17 18 19 20 21 22 23 24 25 26 27 28 29 30 31 32 33 34 35 36 37 38 39 40 41 42 43 44 45 46 47 48 49 50

609
ASUS43 KMPX 130210
RWRMN
WEATHER ROUNDUP FOR MINNESOTA
NATIONAL WEATHER SERVICE TWIN CITIES/CHANHASSEN MN
800 PM CST TUE DEC 12 2017


NOTE: "FAIR" INDICATES FEW OR NO CLOUDS BELOW 12,000 FEET WITH NO
SIGNIFICANT WEATHER AND/OR OBSTRUCTIONS TO VISIBILITY. N/A MEANS
CURRENT SKY AND/OR WEATHER CONDITIONS ARE NOT AVAILABLE.

MNZ060>063-068>070-130300-
   Twin Cities Metro

CITY           SKY/WX    TMP DP  RH WIND       PRES   REMARKS
TWIN CITIES    CLOUDY    23  18  81 SE7       29.81F WCI  15
ST PAUL        CLOUDY    21  16  81 SE8       29.83F WCI  11
CRYSTAL        CLOUDY    23  15  71 S7        29.79F WCI  15
BLAINE         CLOUDY    21  18  86 SE8       29.79F WCI  12
LAKEVILLE      CLOUDY    23  21  93 S3        29.80F
EDEN PRAIRIE   CLOUDY    25  19  78 SE6       29.79F WCI  18
SOUTH ST PAUL  CLOUDY    22  16  79 CALM      29.82F
LAKE ELMO      CLOUDY    21  16  79 SE6       29.82F WCI  14
$$
MNZ001>005-007-008-013>017-022>024-027-028-130300-
   Northwest Minnesota

CITY           SKY/WX    TMP DP  RH WIND       PRES   REMARKS
BEMIDJI        CLOUDY    17  15  89 SE9       29.61F WCI   6
HALLOCK        CLOUDY    28  27  93 S13       29.49F WCI  18
ROSEAU         CLOUDY    19  16  86 SE10      29.55F WCI   8
WARROAD        CLOUDY    18  12  79 SE9       29.58F WCI   6
THIEF RVR FALL CLOUDY    28  26  92 S8        29.54F WCI  20
CROOKSTON      PTCLDY    30  27  86 S14       29.55F WCI  20
FOSSTON        CLOUDY    27  25  93 S9        29.58F WCI  17
DETROIT LAKES  CLOUDY    27  27 100 S7        29.61F WCI  19
MOORHEAD       CLOUDY    30  27  86 CALM      29.60F
PARK RAPIDS    CLOUDY    21  18  88 SE10      29.63F WCI  10
MAHNOMEN       FAIR      30  26  87 S10       29.58F WCI  21
$$
MNZ006-009>011-018-025>026-130300-
   North Central Minnesota

CITY           SKY/WX    TMP DP  RH WIND       PRES   REMARKS
BAUDETTE       CLOUDY    15  13  91 SE12      29.61F WCI   2
FLAG ISLAND    CLOUDY    14  10  85 SE10      29.60F WCI   1
INTL FALLS     CLOUDY    12   7  80 SE10      29.69F WCI  -1
WASKISH        CLOUDY    16  14  93 SE8       29.62F WCI   5
BIG FORK       CLOUDY    14  12  92 S8        29.67F WCI   3
LONGVILLE      CLOUDY    18  14  86 SE6       29.68F WCI   9
GRAND RAPIDS   CLOUDY    14  11  87 S13       29.71F WCI   0
CRANE LAKE     FLURRIES  10   7  85 SE5       29.75F WCI   2
ORR            LGT SNOW  10   7  85 SE8       29.68F WCI  -1
COOK           LGT SNOW  10   9  92 SE5       29.72F WCI   2
WALKER         CLOUDY    18  15  87 SE5       29.64F WCI  11
$$
MNZ012-019>021-037-130300-
   Northeast Minnesota

CITY           SKY/WX    TMP DP  RH WIND       PRES   REMARKS
DULUTH         LGT SNOW  11   9  92 S8        29.76F FOG     WCI  -1
ELY            LGT SNOW  10   7  85 S6        29.75F WCI   1
HIBBING        CLOUDY    11   8  88 SE7       29.72F WCI   0
EVELETH        MIX PCPN  12   7  81 SE6       29.75F WCI   3
DULUTH HARBOR  LGT SNOW  16  10  79 S5        29.84F WCI   9
TWO HARBORS    LGT SNOW  16   9  73 CALM      29.79F
GRAND MARAIS     N/A     14   4  64 NE6       29.87F WCI   5
G MARAIS ARPRT CLOUDY     7  -2  66 CALM      29.76F
$$
MNZ029>031-032-039>041-046>048-054>057-064-130300-
   West Central Minnesota

CITY           SKY/WX    TMP DP  RH WIND       PRES   REMARKS
FERGUS FALLS   CLOUDY    28  27  93 S8        29.67F WCI  20
WHEATON        CLOUDY    32  25  74 S3        29.67F
MORRIS         CLOUDY    28  25  86 S6        29.67F WCI  22
ALEXANDRIA     CLOUDY    31  27  85 SW9       29.67F WCI  23
ELBOW LAKE     FAIR      28  26  92 S9        29.66F WCI  19
WADENA         CLOUDY    21  21 100 SE6       29.65F WCI  14
GLENWOOD       CLOUDY    27  25  93 SW6       29.68F WCI  20
APPLETON       PTCLDY    34  27  75 S6        29.69F WCI  29
BENSON         CLOUDY    30  27  86 S6        29.71F WCI  24
ORTONVILLE     CLOUDY    37  27  65 W7        29.68F
MADISON        CLOUDY    41  30  65 SW7       29.69F
WILLMAR        FAIR      30  27  86 CALM      29.73F
$$
MNZ033>034-036-042>043-049>051-058-059-130300-
   Central Minnesota

CITY           SKY/WX    TMP DP  RH WIND       PRES   REMARKS
ST CLOUD       CLOUDY    20  15  81 SE8       29.75F WCI  10
SAUK CENTRE    FAIR      23  22  93 E6        29.69F WCI  16
PAYNESVILLE    CLOUDY    27  26  96 SE5       29.72F WCI  21
AITKIN         CLOUDY    14  10  85 SE9       29.71F WCI   2
PINE RIVER     CLOUDY    18  14  86 SE10      29.72F WCI   6
BRAINERD       CLOUDY    19  14  81 S7        29.71F WCI  10
STAPLES        MOCLDY    19  18  93 SE6       29.67F WCI  11
LONG PRAIRIE   MOCLDY    23  21  93 E6        29.70F WCI  16
LITTLE FALLS   CLOUDY    19  12  73 SE8       29.72F WCI   9
LITCHFIELD     CLEAR     30  28  93 CALM      29.74F
BUFFALO        CLOUDY    24  19  83 SE3       29.78F
MAPLE LAKE     MOCLDY    24  20  88 SE5       29.76F WCI  18
HUTCHINSON     CLOUDY    30  28  91 S3        29.75F
$$
MNZ037-044-045-052-053-130300-
   East Central Minnesota

CITY           SKY/WX    TMP DP  RH WIND       PRES   REMARKS
PRINCETON      CLOUDY    19  16  86 SE7       29.76F WCI  10
MORA           CLOUDY    18  12  79 SE5       29.79F WCI  11
CAMBRIDGE      CLOUDY    19  10  68 SE6       29.78F WCI  11
RUSH CITY      CLOUDY    16  11  80 SE7       29.80F WCI   6
MOOSE LAKE     CLOUDY    14  10  85 S3        29.77F
HINCKLEY       CLOUDY    18  12  79 SE6       29.79F WCI   9
CLOQUET        FLURRIES  12   9  85 SE5       29.76F WCI   4
MCGREGOR       CLOUDY    16  12  86 SE8       29.74F WCI   5
$$
MNZ071>073-080-081-089-090-097-098-130300-
   Southwest Minnesota

CITY           SKY/WX    TMP DP  RH WIND       PRES   REMARKS
MONTEVIDEO     CLOUDY    30  27  86 SW6       29.70F WCI  24
GRANITE FALLS  CLOUDY    31  27  86 S8        29.73F WCI  23
CANBY          CLEAR     40  30  66 SW17G23   29.70F
MARSHALL       CLEAR     38  28  67 SW24G33   29.69F
REDWOOD FALLS  CLEAR     32  26  78 S7        29.74F WCI  26
OLIVIA         CLEAR     32  28  86 S7        29.73F WCI  26
PIPESTONE      CLOUDY    32  27  80 SW9       29.74F WCI  24
WINDOM         CLEAR     30  18  59 S10       29.77F WCI  21
WORTHINGTON    CLEAR     32  27  81 SW16      29.76F WCI  21
JACKSON        CLEAR     30  27  86 MISG      29.79F
SLAYTON        CLEAR     32  27  84 SW13      29.75F WCI  22
$$
MNZ065>067-074>077-082>085-091>093-130300-
   South Central Minnesota

CITY           SKY/WX    TMP DP  RH WIND       PRES   REMARKS
MANKATO        CLOUDY    31  27  85 S8        29.80F WCI  23
NEW ULM        CLOUDY    34  27  75 SW8       29.77F WCI  27
ST JAMES       MOCLDY    32  27  80 S9        29.79F WCI  24
FAIRMONT       PTCLDY    31  25  78 SW14      29.81F WCI  21
GLENCOE        MOCLDY    31  28  88 S5        29.76F WCI  26
FARIBAULT      CLOUDY    28  25  86 S6        29.81F WCI  22
OWATONNA       CLOUDY    28  23  80 S10G16    29.81F WCI  19
WASECA         CLOUDY    32  28  86 S9        29.82F WCI  24
ALBERT LEA     CLOUDY    30  21  69 SW7       29.82F WCI  23
$$
MNZ078>079-086>088-094>096-130300-
   Southeast Minnesota

CITY           SKY/WX    TMP DP  RH WIND       PRES   REMARKS
ROCHESTER      CLOUDY    23  18  81 S13       29.83F WCI  11
RED WING       CLOUDY    23  14  68 SE8       29.84F WCI  14
STANTON        CLOUDY    28  22  79 S9        29.80F WCI  19
DODGE CENTER   CLOUDY    27  21  80 S12       29.82F WCI  16
WINONA         CLOUDY    23  12  63 SE6       29.91F WCI  16
AUSTIN         CLOUDY    25  19  80 S6        29.84F WCI  18
PRESTON        CLOUDY    24  16  71 S15       29.87F WCI  11
$$
ABBREVIATIONS USED IN REMARKS
   TC - TEMPERATURES IN CELSIUS
  WCI - WIND CHILL INDEX
   HX - HEAT INDEX
  VSB - VISIBILITY
$$




USA.gov is the U.S. government's official web portal to all federal, state and local government web resources and services.